• In India
  • List of Countries
  • For 7 days
  • Water Temperature
  • Satellite Maps
  • Weather Map
  • Weather Widgets
  • user-avatar
    Login

    Hourly Weather New Delhi

    Today, 20 September, Thursday

    Time Temperature Precipitation Wind Pressure Humidity
    00:00 +28°C° 0 mm 0 mps 733 mmHg 51%
    01:00 +27°C° 0 mm 0 mps 733 mmHg 52%
    02:00 +27°C° 0 mm 0 mps 733 mmHg 53%
    03:00 +27°C° 0 mm 0 mps 733 mmHg 53%
    04:00 +26°C° 0 mm 0 mps 733 mmHg 54%
    05:00 +26°C° 0 mm 0 mps 733 mmHg 60%
    06:00 +27°C° 0 mm 0 mps 734 mmHg 57%
    07:00 +28°C° 0 mm 0 mps 734 mmHg 54%
    08:00 +29°C° 0 mm 0 mps 734 mmHg 51%
    09:00 +33°C° 0 mm 1 mps 735 mmHg 45%
    10:00 +35°C° 0 mm 1 mps 735 mmHg 40%
    11:00 +37°C° 0 mm 1 mps 735 mmHg 34%
    12:00 +37°C° 0 mm 1 mps 734 mmHg 32%
    13:00 +39°C° 0 mm 2 mps 734 mmHg 30%
    14:00 +39°C° 0 mm 2 mps 734 mmHg 28%
    15:00 +39°C° 0 mm 2 mps 733 mmHg 31%
    16:00 +38°C° 0 mm 2 mps 733 mmHg 33%
    17:00 +37°C° 0 mm 2 mps 733 mmHg 36%
    18:00 +36°C° 0 mm 3 mps 733 mmHg 39%
    19:00 +35°C° 0 mm 3 mps 733 mmHg 43%
    20:00 +34°C° 0 mm 3 mps 734 mmHg 46%
    21:00 +33°C° 0 mm 3 mps 734 mmHg 49%
    22:00 +33°C° 0 mm 3 mps 734 mmHg 52%
    23:00 +31°C° 0 mm 3 mps 734 mmHg 55%

    Tomorrow, 21 September, Friday

    Time Temperature Precipitation Wind Pressure Humidity
    00:00 +31°C° 0 mm 3 mps 734 mmHg 58%
    01:00 +30°C° 0 mm 3 mps 734 mmHg 60%
    02:00 +30°C° 0 mm 3 mps 734 mmHg 63%
    03:00 +30°C° 0 mm 3 mps 734 mmHg 65%
    04:00 +29°C° 0 mm 3 mps 734 mmHg 67%
    05:00 +29°C° 0 mm 3 mps 734 mmHg 68%
    06:00 +30°C° 0 mm 3 mps 735 mmHg 68%
    07:00 +32°C° 0 mm 4 mps 735 mmHg 67%
    08:00 +32°C° 0 mm 4 mps 736 mmHg 66%
    09:00 +33°C° 0.3 mm 4 mps 736 mmHg 62%
    10:00 +35°C° 0.3 mm 5 mps 736 mmHg 58%
    11:00 +36°C° 0.3 mm 5 mps 736 mmHg 54%
    12:00 +36°C° 0.6 mm 5 mps 736 mmHg 53%
    13:00 +36°C° 0.6 mm 5 mps 736 mmHg 52%
    14:00 +36°C° 0.6 mm 6 mps 736 mmHg 52%
    15:00 +35°C° 0 mm 5 mps 735 mmHg 54%
    16:00 +33°C° 0 mm 4 mps 735 mmHg 56%
    17:00 +32°C° 0 mm 4 mps 735 mmHg 58%
    18:00 +32°C° 0 mm 4 mps 735 mmHg 58%
    19:00 +30°C° 0 mm 4 mps 736 mmHg 59%
    20:00 +30°C° 0 mm 3 mps 736 mmHg 59%
    21:00 +29°C° 0.4 mm 4 mps 736 mmHg 63%
    22:00 +29°C° 0.4 mm 4 mps 736 mmHg 66%
    23:00 +28°C° 0.4 mm 4 mps 736 mmHg 70%

    Day after tomorrow, 22 September, Saturday

    Time Temperature Precipitation Wind Pressure Humidity
    00:00 +28°C° 1.1 mm 4 mps 736 mmHg 72%
    01:00 +27°C° 1.1 mm 4 mps 736 mmHg 74%
    02:00 +27°C° 1.1 mm 4 mps 736 mmHg 76%
    03:00 +27°C° 0.4 mm 5 mps 736 mmHg 76%
    04:00 +26°C° 0.4 mm 5 mps 736 mmHg 77%
    05:00 +26°C° 0.4 mm 5 mps 736 mmHg 77%
    06:00 +26°C° 0.3 mm 5 mps 736 mmHg 77%
    07:00 +27°C° 0.3 mm 5 mps 736 mmHg 77%
    08:00 +27°C° 0.3 mm 6 mps 737 mmHg 78%
    09:00 +28°C° 0.1 mm 6 mps 737 mmHg 75%
    10:00 +29°C° 0.1 mm 6 mps 737 mmHg 72%
    11:00 +30°C° 0.1 mm 6 mps 737 mmHg 69%
    12:00 +30°C° 0.4 mm 6 mps 736 mmHg 69%
    13:00 +30°C° 0.4 mm 6 mps 736 mmHg 69%
    14:00 +30°C° 0.4 mm 6 mps 735 mmHg 69%
    15:00 +30°C° 1.1 mm 6 mps 735 mmHg 69%
    16:00 +30°C° 1.1 mm 6 mps 735 mmHg 70%
    17:00 +29°C° 1.1 mm 5 mps 734 mmHg 71%
    18:00 +29°C° 1 mm 5 mps 735 mmHg 72%
    19:00 +28°C° 1 mm 5 mps 736 mmHg 73%
    20:00 +28°C° 1 mm 4 mps 736 mmHg 74%
    21:00 +28°C° 0.4 mm 4 mps 736 mmHg 75%
    22:00 +28°C° 0.4 mm 4 mps 736 mmHg 77%
    23:00 +28°C° 0.4 mm 4 mps 736 mmHg 78%

    23 September, Sunday

    Time Temperature Precipitation Wind Pressure Humidity
    00:00 +28°C° 0.5 mm 4 mps 736 mmHg 79%
    01:00 +28°C° 0.5 mm 4 mps 736 mmHg 80%
    02:00 +27°C° 0.5 mm 3 mps 736 mmHg 81%
    03:00 +27°C° 0.5 mm 3 mps 736 mmHg 80%
    04:00 +27°C° 0.5 mm 4 mps 736 mmHg 79%
    05:00 +27°C° 0.5 mm 4 mps 736 mmHg 79%
    06:00 +28°C° 0.3 mm 4 mps 736 mmHg 77%
    07:00 +28°C° 0.3 mm 5 mps 737 mmHg 74%
    08:00 +29°C° 0.3 mm 5 mps 737 mmHg 72%
    09:00 +29°C° 0.1 mm 6 mps 737 mmHg 69%
    10:00 +30°C° 0.1 mm 6 mps 737 mmHg 66%
    11:00 +32°C° 0.1 mm 6 mps 737 mmHg 63%
    12:00 +32°C° 0.1 mm 6 mps 736 mmHg 64%
    13:00 +30°C° 0.1 mm 5 mps 736 mmHg 65%
    14:00 +30°C° 0.1 mm 5 mps 735 mmHg 67%
    15:00 +30°C° 0.1 mm 4 mps 735 mmHg 69%
    16:00 +29°C° 0.1 mm 4 mps 735 mmHg 71%
    17:00 +29°C° 0.1 mm 3 mps 735 mmHg 72%
    18:00 +29°C° 0.1 mm 3 mps 735 mmHg 74%
    19:00 +28°C° 0.1 mm 2 mps 736 mmHg 76%
    20:00 +28°C° 0.1 mm 2 mps 736 mmHg 77%
    21:00 +28°C° 0.4 mm 2 mps 736 mmHg 78%
    22:00 +28°C° 0.4 mm 2 mps 736 mmHg 79%
    23:00 +28°C° 0.4 mm 2 mps 736 mmHg 79%

    24 September, Monday

    Time Temperature Precipitation Wind Pressure Humidity
    00:00 +27°C° 0.2 mm 2 mps 736 mmHg 80%
    01:00 +27°C° 0.2 mm 2 mps 735 mmHg 80%
    02:00 +27°C° 0.2 mm 2 mps 735 mmHg 81%
    03:00 +27°C° 0 mm 2 mps 735 mmHg 82%
    04:00 +27°C° 0 mm 2 mps 735 mmHg 82%
    05:00 +27°C° 0 mm 3 mps 735 mmHg 83%
    06:00 +27°C° 0 mm 3 mps 735 mmHg 80%
    07:00 +28°C° 0 mm 4 mps 736 mmHg 77%
    08:00 +29°C° 0 mm 4 mps 736 mmHg 73%
    09:00 +30°C° 0 mm 4 mps 736 mmHg 68%
    10:00 +32°C° 0 mm 4 mps 736 mmHg 63%
    11:00 +34°C° 0 mm 4 mps 736 mmHg 58%
    12:00 +34°C° 1.2 mm 4 mps 736 mmHg 57%
    13:00 +34°C° 1.2 mm 4 mps 735 mmHg 57%
    14:00 +35°C° 1.2 mm 4 mps 734 mmHg 56%
    15:00 +34°C° 1.1 mm 4 mps 734 mmHg 58%
    16:00 +34°C° 1.1 mm 3 mps 734 mmHg 59%
    17:00 +34°C° 1.1 mm 3 mps 733 mmHg 61%
    18:00 +33°C° 1.2 mm 3 mps 734 mmHg 63%
    19:00 +31°C° 1.2 mm 2 mps 734 mmHg 66%
    20:00 +30°C° 1.2 mm 2 mps 735 mmHg 68%
    21:00 +30°C° 1.8 mm 3 mps 735 mmHg 69%
    22:00 +30°C° 1.8 mm 3 mps 735 mmHg 70%
    23:00 +29°C° 1.8 mm 3 mps 735 mmHg 71%

    25 September, Tuesday

    Time Temperature Precipitation Wind Pressure Humidity
    00:00 +29°C° 1.1 mm 3 mps 735 mmHg 72%
    01:00 +29°C° 1.1 mm 3 mps 734 mmHg 73%
    02:00 +28°C° 1.1 mm 3 mps 734 mmHg 74%
    03:00 +28°C° 0.4 mm 3 mps 734 mmHg 75%
    04:00 +28°C° 0.4 mm 3 mps 734 mmHg 75%
    05:00 +28°C° 0.4 mm 3 mps 734 mmHg 76%
    06:00 +28°C° 0.1 mm 3 mps 735 mmHg 74%
    07:00 +29°C° 0.1 mm 3 mps 735 mmHg 72%
    08:00 +29°C° 0.1 mm 3 mps 735 mmHg 70%
    09:00 +31°C° 0.2 mm 3 mps 735 mmHg 66%
    10:00 +33°C° 0.2 mm 3 mps 735 mmHg 61%
    11:00 +34°C° 0.2 mm 4 mps 735 mmHg 57%
    12:00 +34°C° 1.6 mm 3 mps 735 mmHg 58%
    13:00 +34°C° 1.6 mm 3 mps 734 mmHg 59%
    14:00 +34°C° 1.6 mm 3 mps 733 mmHg 60%
    15:00 +32°C° 2.3 mm 2 mps 733 mmHg 63%
    16:00 +32°C° 2.3 mm 2 mps 733 mmHg 66%
    17:00 +31°C° 2.3 mm 2 mps 732 mmHg 69%
    18:00 +31°C° 0.1 mm 2 mps 733 mmHg 71%
    19:00 +30°C° 0.1 mm 2 mps 733 mmHg 73%
    20:00 +30°C° 0.1 mm 1 mps 733 mmHg 75%
    21:00 +29°C° 0 mm 2 mps 733 mmHg 76%
    22:00 +29°C° 0 mm 2 mps 733 mmHg 77%
    23:00 +29°C° 0 mm 2 mps 733 mmHg 78%
    Show more